Regional Weather Roundup
Issued by NWS Mobile, AL

Home | Current Version | Previous Version | Text Only | Print | Product List | Glossary On
Versions: 1 2 3 4 5 6 7 8 9 10 11 12 13 14 15 16 17 18 19 20 21 22 23 24 25 26 27 28 29 30 31 32 33 34 35 36 37 38 39 40 41 42 43 44 45 46 47 48 49 50
000
ASUS44 KMOB 212210
RWRMOB
REGIONAL WEATHER ROUNDUP
NATIONAL WEATHER SERVICE MOBILE AL
400 PM CST SUN DEC 21 2014

NOTE: "FAIR" INDICATES FEW OR NO CLOUDS BELOW 12,000 FEET WITH NO
      SIGNIFICANT WEATHER AND/OR OBSTRUCTIONS TO VISIBILITY.

  * THESE STATIONS ARE PART OF THE UNIVERSITY OF SOUTH ALABAMA
    MESONET AND ARE NOT UNDER NWS OR FAA QUALITY CONTROL.

ALZ061>064-212300-
COASTAL ALABAMA

CITY           SKY/WX    TMP DP  RH WIND       PRES   REMARKS
MOBILE REG APT CLOUDY    56  52  86 NE7       30.02F
BROOKLEY FIELD CLOUDY    58  54  86 N6        30.03F
USA CAMPUS*    NOT AVBL
DOG RIVER*     NOT AVBL


CITY           SKY/WX    TMP DP  RH WIND       PRES   REMARKS
MOUNT VERNON*    N/A     54  52  94 N2        30.04F
SARALAND*      NOT AVBL
BAY MINETTE*   NOT AVBL
LOXLEY*          N/A     55  54  94 NE5       30.02S
ROBERTSDALE*     N/A     55  54  94 CALM      30.02S
FAIRHOPE*        N/A     55  55 100 NE7       30.01F
ELBERTA*         N/A     57  55  94 NE5       30.01S
FOLEY*           N/A     55  54  94 NE2       30.01S
GRAND BAY*       N/A     57  54  88 N6        30.00F
DAUPHIN ISLND* NOT AVBL
BON SCOUR NWR* NOT AVBL
GULF SHORES    CLOUDY    56  55  94 NE6       30.01S

$$

ALZ051>060-212300-
INTERIOR SOUTHWEST AND SOUTH CENTRAL ALABAMA

CITY           SKY/WX    TMP DP  RH WIND       PRES   REMARKS
GREENVILLE     CLOUDY    54  52  94 NE6       30.04S FOG
EVERGREEN      CLOUDY    57  54  89 E6        30.04S
CASTLEBERRY*   NOT AVBL
ATMORE*          N/A     55  55 100 E5        30.04S
DIXIE*           N/A     55  54  94 CALM      30.02S
ANDALUSIA/OPP  CLOUDY    57  54  88 E3        30.04F FOG
ANDALUSIA*       N/A     54  54 100 E3        30.03F
FLORALA APT    CLOUDY    56  53  90 E6        30.05S
FLORALA*         N/A     55  54  94 NE2       30.01S

$$

FLZ001>006-212300-
WESTERN FLORIDA PANHANDLE

CITY           SKY/WX    TMP DP  RH WIND       PRES   REMARKS
PENSACOLA      CLOUDY    55  53  93 N8        30.01F
NAS PENSACOLA  CLOUDY    58  55  90 N5        30.02S
MILTON         CLOUDY    57  53  86 NE3       30.02F
WHTNG S FIELD  CLOUDY    58  53  84 NE7       30.02F


CITY           SKY/WX    TMP DP  RH WIND       PRES   REMARKS
WALNUT HILL*   NOT AVBL
JAY*             N/A     55  54  94 N3        30.04S
DUKE FIELD     CLOUDY    56  54  94 NE5       30.03S
CRESTVIEW      CLOUDY    56  53  90 E5        30.04S
VALPARAISO     CLOUDY    56  54  94 NE5       30.02F FOG
DESTIN         CLOUDY    57  55  93 NE5       30.03R

$$

MSZ076-079-212300-
INTERIOR SOUTHEAST MISSISSIPPI

CITY           SKY/WX    TMP DP  RH WIND       PRES   REMARKS
LEAKESVILLE*   NOT AVBL
AGRICOLA*      NOT AVBL

$$

MARINE OBSERVATIONS

STATION/POSITION TIME  TEMP    WIND        PRES    WAVE
                       AIR SEA DIR/SP/G            HT/PER
                 (UTC) (F)     (DEG/KT/KT) (MB)    (FT/S)
PASCAGOULA       2200   57      10/  6/  7 1015.9F
PETIT BOIS ISLND 2200   57      40/  8/ 10 1016.3R
GRAND BAY        2100   57      40/  5     1017.0S
KATRINA CUT      2100   56      40/  8     1016.9S
CEDAR POINT      2100   56      30/  8     1016.6S
E DAUPHIN ISLAND 2200   56      10/  9/ 10 1015.8F
MIDDLE BAY LIGHT 2100   56     360/  9     1015.9R
USCG MOBILE BAY  2200   57 58   40/  6/  7 1015.5R
STATE DOCKS      2200   57 59              1016.3R
MEAHER PARK      2100   58      30/  3     1016.9S
WEEKS BAY        2100   58                   N/A
FORT MORGAN      2200   56      30/ 12/ 13 1015.6R
12 S ORANGE BCH  2200   61 70   40/ 16/ 17 1015.1F   2/ 6
PENSACOLA BAY    2200   58 59   60/  2/  6 1016.4F
64 S DAUPHIN ISL 2200   66 74   10/ 10/ 16 1014.9R   3/ 6
67 S FORT MORGAN 2100   67      30/ 10     1014.2F

$$

SELECTED LOCATIONS ACROSS THE REGION

CITY           SKY/WX    TMP DP  RH WIND       PRES   REMARKS
NEW ORLEANS    CLOUDY    56  51  84 NE8       30.01F
GULFPORT       CLOUDY    57  52  83 SE6       30.01S
PASCAGOULA AP  CLOUDY    57  53  86 NE6       30.01S
PASCAGOULA*      N/A     57  54  88 N3        30.01S
HATTIESBURG    CLOUDY    56  49  77 NE5       30.03F
LAUREL         CLOUDY    54  46  76 E3        30.04S
MERIDIAN       CLOUDY    50  45  83 NE7       30.04F
JACKSON        PTCLDY    59  45  59 SE6       30.01S
MONTGOMERY     CLOUDY    55  49  80 NE5       30.06F
TROY           CLOUDY    54  51  90 NE6       30.07R FOG
KINSTON*       NOT AVBL
GENEVA*          N/A     55  54  94 CALM      30.07R
ASHFORD*         N/A     54  54 100 E3        30.03F
DOTHAN         CLOUDY    53  52  96 E7        30.07S FOG
PANAMA CITY    CLOUDY    56  54  93 N5        30.02R FOG

$$



USA.gov is the U.S. government's official web portal to all federal, state and local government web resources and services.